Regional Weather Roundup
Issued by NWS

Home | Current Version | Previous Version | Graphics & Text | Print | Product List | Glossary On
Versions: 1 2 3 4 5 6 7 8 9 10 11 12 13 14 15 16 17 18 19 20 21 22 23 24 25 26 27 28 29 30 31 32 33 34 35 36 37 38 39 40 41 42 43 44 45 46 47 48 49 50
878
ASUS44 KJAN 011010
RWRMS

MISSISSIPPI HOURLY WEATHER ROUNDUP
NATIONAL WEATHER SERVICE JACKSON MS
400 AM CST SUN MAR 01 2015

NOTE: "FAIR: INDICATES FEW OR NO CLOUDS BELOW 12,000 FEET WITH NO
SIGNIFICANT WEATHER AND/OR OBSTRUCTIONS TO VISIBILITY.

MSZ001>002-007>008-010>013-018>021-025>028-034>036-011100-
NORTHWEST MISSISSIPPI

CITY           SKY/WX    TMP DP  RH WIND       PRES   REMARKS
CLARKSDALE     MOCLDY    36  32  87 N6        30.32F WCI  31
CLEVELAND      LGT RAIN  36  34  91 NE6       30.31F WCI  32
GREENWOOD        N/A    N/A N/A N/A MISG      30.31R
GREENVILLE     PTCLDY    38  32  79 N8        30.30F WCI  32
OLIVE BRANCH   MOCLDY    34  28  80 CALM      30.33R
OXFORD         FAIR      41  36  81 CALM      30.34R
TUNICA         MOSUNNY   34  30  86 N5        30.33F WCI  30
$$

MSZ003>006-009-014>017-022>024-029>033-037>039-011100-
NORTHEAST MISSISSIPPI

CITY           SKY/WX    TMP DP  RH WIND       PRES   REMARKS
COLUMBUS AFB   NOT AVBL
CORINTH        CLOUDY    43  34  70 CALM      30.33S
GOLDN TRIANGLE CLOUDY    52  46  82 S12       30.33S
STARKVILLE     CLOUDY    50  46  87 S6        30.33S
TUPELO         CLOUDY    46  37  71 SE3       30.34S
$$

MSZ040-058-011100-
CENTRAL MISSISSIPPI

CITY           SKY/WX    TMP DP  RH WIND       PRES   REMARKS
JACKSON INTL   CLOUDY    52  48  86 SE7       30.29S
JACKSON HAWKNS CLOUDY    51  45  79 E8        30.29F
MERIDIAN KEY   CLOUDY    51  48  89 SE5       30.34S
MERIDIAN NAS   CLOUDY    51  48  89 SE8       30.35S
VICKSBURG      CLOUDY    48  41  76 SE3       30.28F
$$

MSZ059>079-011100-
SOUTH MISSISSIPPI

CITY           SKY/WX    TMP DP  RH WIND       PRES   REMARKS
BROOKHAVEN     CLOUDY    54  52  94 SE6       30.29F
HATTIESBURG    CLOUDY    54  51  90 E6        30.33S
MCCOMB         CLOUDY    54  52  93 SE8       30.27S FOG
NATCHEZ        CLOUDY    55  50  82 SE9       30.26S
PINE BELT      CLOUDY    54  48  82 SE6       30.33S
$$

MSZ080>082-011100-
COASTAL MISSISSIPPI

CITY           SKY/WX    TMP DP  RH WIND       PRES   REMARKS
BILOXI         CLOUDY    53  53  98 E9        30.30F
PASCAGOULA     CLOUDY    51  50  96 E9        30.32F
GULFPORT       CLOUDY    54  51  90 E12       30.31S
$$



USA.gov is the U.S. government's official web portal to all federal, state and local government web resources and services.